Voltar ao catálogo

STARLINK-36337

AtivoComunicaçõesVLEO
NORAD 68716·PAYLOAD·🇺🇸 United States

Lançado Apr 14, 2026 de Cape Canaveral Space Force Station

Loading…

Próximas Passagens (próximas 24 horas)

TLE

AtualizadoSource: CelesTrak SupGP

Época: Sep 14, 2026, 22:37 UTC

1 68716C 26081T   26257.94284722  .00022150  00000+0  65422-3 0  2573
2 68716  53.1586 231.6609 0001479  91.0382 353.9030 15.34388493    11

Acompanhe STARLINK-36337 em tempo real com AllMySat

Download on the App Store